Showing default

BEIDOU 3 G3, 45807

Orbit data source: Space-Track

BEIDOU 3 G3, 45807 is a payload satellite owned by CNSA (CN) in GEO that was launched on Tue, 23 Jun 2020 UTC via a CHANG ZHENG 3B launch vehicle from the Xichang Space Center, China (XSC). Payload-class satellites include a variety of spacecraft equipped with specific instruments for various scientific and technological missions. These include communications satellites like Starlink; space stations such as the ISS; scientific satellites like the Hubble; Earth observation satellites from companies like Planet Labs, Umbra, and HawkEye 360; GPS; miniature CubeSats for education and research; and military/defense satellites.

Not visible in the next 10 days
Identifier
45807, 2020-040A
Orbit
GEO
Country
Flag of CNCN / PRC
Related business
Manufacturer
CAST
Mission
Operational Defense Navigation
Bus & Motor
DFH-3B, FY-25
Mass
~3,060 kg wet, 1,700 kg dry
Launch date (UTC)
2020-06-23 (5 years ago)
Launch vehicle
CHANG ZHENG 3B
Launch site
Xichang Space Center, China (XSC)
Object type
Payload
Rocket body
Debris
Shape & HBR
Box + 2 Pan, Unknown HBR
Radar Cross Section
13.998 m², Large (>1 m²)

Expand to show TLE details & history
Last TLE update: 6 hours ago

TLE from 6 hours ago
0 BEIDOU 3 G3
1 45807U 20040A   25261.00392128 -.00000373  00000-0  00000-0 0  9995
2 45807   1.7796  65.6165 0004235 329.0549  74.5013  1.00271939 19340
Epoch: 2025-09-18T00:05Z
TLE epoch observation values (Epoch: 2025-09-18T00:05:38.798Z)
Latitude
1.20967°
Longitude
110.62131°
Altitude
35,781.213 km
Speed
3.075 km/s
True Right ascension
07h 16m 49s
True Declination
1° 12' 30"
Sunlit
Object was in daylight at epoch
Visualization orbit readout
Latitude
Unknown
Longitude
Unknown
Altitude
Unknown
Speed
Unknown
Apparent Right ascension
Unknown
Apparent Declination
Unknown
Sunlit
N/A
Visualization observer readout
Local Sidereal Time
23:21:25
Azimuth
Unknown
Elevation
Unknown
Doppler factor
Unknown
Orbital elements
Apogee altitude
35,805.478 km
Perigee altitude
35,769.763 km
Semi-major axis
42,165.758 km
Eccentricity
0.00042
Inclination
1.7796°
RAAN
65.6165°
Arg. of periapsis
329.0549°
True anomaly
74.54807°
Mean anomaly
74.5013°
Eccentric anomaly
74.52469°
Mean motion
0.25067 °/min
Orbital period
1,436.15 mins
BSTAR
0
Loading maneuver chart data...
Computing Atmospheric mass density...
Loading historical data...
Loading historical data...
Loading historical data...
Loading historical data...
Loading historical data...
Loading historical data...
Loading historical data...
Other satellites on launch #40 in the year 2020 (2020-06-23 UTC)

Documentation

Showing up to 5 results
|